Theta_e
337 338 341 344 345 347 348 348 348 348 348 345 344 343 343 343 343 343 342 343 343 343 343 343 345 348 348 348 348 348 349 349 348 347 347 347 347 347 346 346 346 345 345 345 346 345 344 343 343 342 341 340 342 344 346 346 346 346 345 345 344 344 345 345 346 346 345 343 343 344 345 346 345 346 344 343 343 342 341 342 341 339 340 340 341
338 340 342 345 346 347 347 347 347 348 347 345 343 344 343 342 342 342 341 341 342 342 343 343 344 348 348 348 348 348 348 348 347 346 346 346 346 345 346 345 344 344 343 343 342 341 342 342 342 341 341 340 343 343 343 344 344 344 344 344 344 343 343 343 343 343 344 344 342 343 344 344 345 346 345 343 342 341 340 340 340 337 338 341 340
341 341 342 345 346 346 346 347 347 348 346 344 343 343 342 341 341 341 342 342 342 342 342 344 349 348 348 347 347 348 348 347 347 345 345 345 344 343 344 343 343 343 344 342 342 340 341 341 341 340 339 340 341 341 343 342 343 343 343 343 342 342 342 342 342 341 342 342 342 344 344 344 344 343 344 343 343 342 341 341 340 339 337 339 338
341 341 342 344 346 346 347 347 347 347 346 344 342 341 342 341 340 340 341 341 341 341 341 343 348 348 348 347 347 347 347 346 346 345 343 343 343 343 342 342 341 341 341 340 341 342 341 340 341 340 339 339 340 341 341 341 342 342 342 341 341 341 341 341 341 341 341 340 339 339 339 340 340 342 343 343 343 343 341 341 340 340 340 339 338
342 343 343 345 347 346 346 346 347 347 346 344 343 343 342 341 341 340 340 340 340 340 340 343 348 348 347 348 347 346 346 346 345 344 342 341 342 342 341 341 340 339 339 339 342 341 339 338 338 338 338 338 338 339 340 340 341 341 341 341 341 341 341 341 341 341 341 340 340 339 337 337 338 340 341 344 344 342 341 342 342 343 342 342 343
342 343 343 344 346 347 346 347 347 347 344 344 343 342 341 341 341 341 340 340 340 340 340 344 346 346 346 346 346 345 344 343 343 341 340 340 341 341 340 340 339 338 338 339 341 339 338 338 337 338 338 337 337 337 338 339 340 341 340 341 341 341 341 340 340 339 338 339 340 341 341 339 340 340 344 344 344 341 341 342 342 342 341 341 342
342 342 343 344 346 346 344 346 348 347 345 344 343 342 341 341 340 340 340 340 340 340 339 343 346 346 345 345 346 346 346 345 344 343 342 341 340 340 340 339 338 338 340 340 340 341 342 340 339 339 338 338 337 337 336 337 338 339 340 341 341 341 340 339 339 338 337 339 340 340 340 341 340 340 342 342 344 342 341 342 341 341 341 342 341
343 342 343 344 346 345 345 346 348 347 346 345 343 342 342 341 340 340 339 340 340 340 341 345 346 345 345 345 346 346 345 343 341 340 339 339 339 339 338 338 337 338 339 339 339 341 341 340 339 338 338 338 337 337 339 338 339 340 341 341 341 340 339 339 338 337 337 338 339 339 339 339 339 339 342 341 342 342 341 341 340 340 339 337 337
342 343 344 344 345 343 344 347 347 346 345 344 343 343 342 341 340 340 340 340 340 339 338 342 342 344 345 345 345 344 343 342 340 338 337 337 338 338 337 336 337 337 337 339 340 340 341 340 338 338 338 338 337 338 338 338 339 340 340 340 340 339 338 338 337 336 337 338 338 338 338 338 338 337 339 340 340 339 338 337 337 338 336 336 335
342 344 344 344 345 341 345 346 347 345 345 344 343 343 343 341 341 341 340 340 340 340 339 340 341 341 342 344 345 345 344 343 340 337 337 337 337 337 336 337 337 337 337 338 341 341 340 340 340 340 338 339 338 338 337 337 338 339 340 340 340 339 338 336 335 336 337 337 337 337 337 337 336 336 337 338 338 338 336 334 334 334 334 334 333
342 344 344 343 344 340 346 347 347 346 346 344 343 343 342 342 341 340 339 339 339 339 338 340 340 340 341 342 343 343 343 342 341 338 336 336 336 336 336 338 337 337 338 338 339 340 340 341 341 341 340 338 339 339 339 339 339 340 340 340 339 338 337 335 335 336 337 336 335 335 335 336 335 335 337 337 337 336 334 335 334 334 334 334 333
342 343 344 343 343 340 346 346 347 346 345 345 344 344 342 341 340 340 339 338 338 339 339 339 339 339 341 341 341 343 342 343 341 338 336 335 335 335 336 336 336 337 337 338 338 341 340 340 341 341 340 340 339 339 339 339 340 340 340 339 338 336 335 334 335 336 337 337 337 336 334 332 332 332 337 337 336 335 333 332 333 333 333 333 333
342 342 343 344 345 339 344 345 345 346 345 345 344 343 343 342 341 340 339 339 339 340 339 338 339 339 337 340 339 339 341 342 341 338 336 335 334 334 336 337 337 337 337 338 338 338 339 340 340 341 340 339 339 339 339 339 340 339 339 338 337 335 333 332 336 336 337 337 336 337 336 334 331 333 333 334 333 333 333 332 332 333 333 331 331
341 342 343 344 345 344 340 342 344 345 346 345 344 343 343 342 342 341 341 340 339 339 338 339 339 339 338 338 339 339 339 341 340 338 337 335 334 334 336 336 336 337 337 338 338 339 341 340 341 340 339 338 338 339 339 339 339 339 338 337 335 334 332 332 333 336 336 337 337 337 335 334 334 335 334 334 334 334 335 334 334 332 331 331 331
341 342 343 344 345 346 341 339 341 342 343 345 345 344 343 342 341 341 341 341 340 339 339 339 339 339 338 338 339 340 339 340 339 337 337 335 334 334 337 337 338 337 337 337 338 339 339 340 339 339 338 338 339 339 339 339 338 338 337 336 333 331 330 334 335 336 336 336 336 337 337 333 334 332 332 333 334 334 333 332 330 328 328 330 329
342 342 343 344 345 345 346 341 335 336 340 342 343 343 344 342 342 341 341 340 340 339 340 339 339 339 338 337 340 339 338 337 338 337 336 335 334 334 337 337 337 337 337 337 338 338 338 338 338 337 337 337 338 338 339 338 337 337 336 334 331 330 328 331 335 335 334 335 335 335 334 332 334 333 332 333 333 332 331 330 328 328 330 329 327
341 342 343 343 344 344 345 344 339 332 333 336 338 340 341 342 342 342 342 341 341 340 340 340 338 338 338 337 341 340 340 338 337 336 335 334 334 335 337 336 337 336 336 336 336 336 337 337 337 336 336 336 336 336 337 337 336 334 333 331 329 328 327 328 334 334 334 334 335 337 335 334 334 334 334 333 331 330 328 329 330 330 329 326 325
340 341 341 342 343 343 343 344 342 342 343 337 333 337 339 340 340 340 340 340 341 341 341 340 340 340 339 337 337 337 339 339 338 335 334 334 335 336 334 336 335 335 335 334 335 337 336 336 336 336 336 336 336 335 335 335 334 333 331 330 328 326 325 328 334 334 334 334 336 336 332 333 331 329 329 329 329 328 328 328 328 327 325 325 324
339 340 341 342 342 342 342 341 341 342 341 342 343 341 334 336 337 337 338 339 339 339 339 336 336 335 334 333 333 333 333 334 337 336 335 334 333 334 337 337 336 335 334 334 335 336 336 335 336 335 335 334 335 335 334 333 332 330 329 327 325 323 324 329 334 334 334 333 334 333 329 331 329 329 330 330 330 329 328 329 328 326 324 324 323
338 339 341 342 342 342 341 341 340 340 340 341 342 343 334 331 333 334 335 336 337 336 334 331 328 326 327 327 327 330 327 329 326 332 332 332 329 329 334 336 335 334 333 333 334 335 335 335 335 335 334 334 334 333 331 331 329 328 326 324 322 323 331 332 332 330 333 333 333 330 329 331 332 331 331 331 330 329 327 325 324 323 323 324 323
336 337 339 340 341 341 340 341 341 339 338 340 341 341 338 331 332 330 331 332 332 332 329 324 323 323 324 322 324 330 331 331 332 333 325 332 323 325 333 335 334 333 333 332 333 334 334 334 333 333 332 330 327 327 328 328 327 326 323 320 319 328 329 331 330 329 331 332 333 332 331 331 331 330 328 327 325 328 328 326 324 324 324 322 322
334 335 338 340 340 341 340 340 340 338 338 339 340 340 338 335 338 338 338 335 329 326 330 331 326 329 320 326 328 327 328 329 330 327 331 331 329 322 325 332 334 332 332 332 332 333 333 332 331 330 327 324 320 324 323 320 321 320 318 316 324 325 328 330 331 330 330 331 332 331 331 332 329 328 327 327 329 327 324 324 323 323 322 321 321
332 335 336 338 340 340 341 340 340 339 338 339 340 340 339 339 338 336 335 329 331 330 331 329 329 328 327 327 326 327 327 328 328 328 328 322 329 321 324 328 331 330 331 331 332 332 331 330 328 326 322 318 320 320 320 320 320 314 314 320 322 323 326 328 331 330 328 330 332 328 331 329 327 329 329 329 327 324 324 323 322 322 321 320 320
332 333 335 338 339 339 340 340 340 339 338 338 339 339 339 339 338 336 334 333 332 330 329 328 328 327 326 326 326 325 326 328 322 322 323 330 327 321 322 323 323 322 322 327 328 329 328 326 323 320 317 317 318 318 318 319 319 319 319 319 320 321 324 327 330 329 328 327 329 325 331 329 329 328 327 327 325 323 322 322 322 323 322 320 320
333 335 335 336 338 339 339 339 340 339 339 338 338 338 339 338 338 335 332 332 331 329 328 327 327 326 325 325 325 325 326 326 326 327 327 328 329 329 329 327 325 323 318 321 320 318 318 318 317 316 317 317 318 317 318 319 318 318 318 318 319 320 322 323 326 328 328 326 327 323 330 331 328 328 329 328 326 322 321 322 322 321 321 321 321
334 333 334 335 337 338 339 339 339 339 339 338 338 338 338 337 337 335 332 331 330 329 327 327 326 325 325 324 324 325 325 325 325 326 326 327 327 327 326 325 323 319 318 317 315 315 315 316 316 316 315 315 315 315 316 317 318 317 318 317 318 320 321 321 322 324 324 324 326 321 327 331 329 327 327 327 326 323 321 321 321 320 320 320 320
333 333 335 335 337 338 338 339 338 339 338 338 338 337 338 338 338 335 333 330 329 329 327 326 326 324 324 323 324 324 324 325 324 325 325 325 326 325 325 324 321 317 315 315 314 313 314 314 314 314 313 314 313 313 314 314 315 317 316 316 317 318 320 320 320 321 322 322 320 319 325 330 329 326 328 327 327 325 322 321 320 321 320 320 319
333 334 335 335 335 337 338 339 338 338 338 338 337 336 337 337 338 334 334 330 328 328 327 326 325 324 323 323 324 324 324 324 324 324 324 324 325 323 322 322 320 315 313 314 313 312 312 312 313 313 313 313 313 313 313 313 313 314 316 315 316 317 318 318 319 318 320 322 324 321 323 327 329 329 327 325 327 325 323 322 321 320 320 320 319
331 333 334 335 335 336 338 338 338 337 338 339 336 336 337 337 337 335 334 328 330 327 326 325 325 324 323 323 323 323 323 324 323 323 322 323 322 322 322 321 318 313 312 311 312 312 311 312 312 313 312 312 312 312 312 312 313 313 315 315 315 315 316 317 318 317 318 320 322 322 320 325 329 329 327 325 326 325 322 320 324 322 321 320 319
332 333 334 334 336 336 336 337 337 338 338 338 337 335 335 336 336 335 336 331 332 330 326 325 325 324 323 322 322 323 323 323 323 322 322 322 321 320 321 320 317 312 312 311 310 311 311 311 311 311 312 312 312 311 312 312 312 312 313 314 314 314 315 316 317 318 318 319 320 323 316 321 325 329 327 326 326 325 323 321 319 321 321 320 319
333 332 333 334 335 335 336 336 337 334 338 337 337 336 335 335 335 336 336 333 333 331 327 325 324 324 324 322 322 322 322 322 322 321 322 322 321 320 320 319 316 312 312 310 309 310 310 311 311 311 311 311 310 310 311 312 311 311 310 312 312 312 313 314 315 315 316 319 320 321 322 316 323 328 328 327 326 325 323 323 323 321 319 318 317
331 332 333 335 335 335 335 336 337 336 335 337 337 336 335 335 335 335 335 334 334 332 329 327 322 323 323 323 322 321 321 321 321 320 322 321 320 320 319 318 318 311 311 309 308 309 309 309 308 309 309 310 309 309 309 311 310 309 309 309 309 311 311 312 313 313 315 316 319 319 320 319 316 321 325 328 326 325 324 325 324 323 322 321 321
331 333 333 333 334 334 335 335 336 336 336 336 337 337 336 335 335 335 335 335 333 333 331 328 326 323 323 323 322 321 320 320 320 320 319 320 320 319 319 318 317 312 311 309 308 307 307 307 307 306 307 308 308 308 307 308 309 307 307 307 307 309 308 309 311 311 312 314 317 319 318 316 316 312 315 321 326 325 324 322 325 322 322 321 320
326 328 331 332 334 335 335 336 335 335 334 336 336 336 337 336 335 336 334 334 334 333 333 331 329 325 323 322 322 321 320 320 319 318 319 319 318 319 319 317 316 311 310 308 307 307 307 307 306 307 306 308 309 308 308 308 305 303 304 304 305 306 306 308 308 309 308 310 313 316 317 315 313 313 314 314 320 324 325 322 323 322 321 322 321
324 325 328 332 333 334 334 335 334 335 333 335 334 336 337 336 335 336 335 334 334 334 334 332 331 328 325 323 321 321 320 320 319 318 317 317 316 316 317 317 315 311 310 308 307 305 306 306 305 307 306 306 306 305 306 307 305 305 304 302 304 303 303 306 305 307 307 307 307 311 313 314 312 309 308 312 312 318 322 322 323 323 322 322 321
323 324 325 327 331 333 334 334 334 334 335 334 335 336 336 337 336 331 336 334 333 333 333 333 332 330 327 326 324 321 320 319 319 318 316 316 316 315 316 316 315 311 310 307 306 305 305 306 305 308 306 306 305 305 305 305 303 303 301 300 301 300 302 303 304 305 306 305 307 308 309 310 311 310 307 310 311 314 316 319 322 324 322 321 322
323 323 323 324 327 330 332 333 333 334 334 335 335 335 336 336 336 336 336 335 333 333 333 334 333 332 329 327 325 323 321 320 319 318 316 315 315 315 315 315 315 313 311 308 306 307 305 305 305 306 309 307 305 306 304 304 302 302 300 299 299 299 301 302 303 303 303 304 306 306 306 307 307 305 312 309 307 310 313 316 319 322 322 322 321
321 322 323 324 325 327 330 332 334 334 334 335 334 334 335 335 336 336 333 335 334 334 333 333 333 332 331 329 327 325 323 323 321 319 318 316 315 315 315 315 314 313 312 309 308 307 307 307 305 305 307 307 305 306 305 304 303 300 298 299 299 298 299 301 301 300 302 304 305 306 306 305 305 306 307 309 308 307 309 312 314 315 314 316 322
319 320 321 322 323 324 326 328 330 333 334 335 334 334 335 335 335 335 334 335 335 335 334 333 333 333 331 330 328 326 323 323 321 320 319 319 317 316 315 313 313 313 313 311 310 307 306 306 306 305 305 307 306 306 306 305 303 301 300 300 300 299 298 298 298 299 300 301 303 304 304 303 303 302 303 305 306 306 307 309 311 314 316 314 320
317 317 318 320 321 323 324 326 328 332 333 334 333 332 332 332 331 332 332 332 334 332 334 334 334 333 333 331 330 329 327 324 323 322 321 319 318 316 315 314 313 312 311 310 308 306 304 304 305 305 303 303 304 305 304 302 301 299 298 298 298 297 297 297 297 298 299 300 300 301 303 303 302 302 302 302 302 303 304 306 306 312 314 314 314
315 316 316 318 320 321 321 322 326 329 331 331 331 331 330 330 330 331 330 332 331 332 331 333 333 333 333 333 331 330 329 326 324 323 322 318 319 319 317 314 312 312 311 310 310 309 307 306 306 305 304 303 302 301 301 302 299 298 296 297 298 297 295 296 296 297 298 299 299 299 300 301 302 301 302 300 299 300 301 302 304 305 308 313 313
309 313 315 316 318 319 320 322 323 326 329 331 331 330 331 331 330 330 330 331 329 328 330 331 332 333 333 332 331 331 330 328 325 325 323 322 320 319 317 315 311 310 311 312 310 308 308 306 305 303 303 302 302 300 300 301 299 301 301 298 299 299 298 295 294 295 296 298 298 299 299 299 301 303 302 300 299 299 299 299 300 300 303 306 309
304 309 312 314 315 316 319 320 321 323 326 329 330 329 331 331 331 330 330 328 328 330 331 330 330 330 331 333 334 333 332 330 328 325 325 324 322 321 320 318 312 310 310 310 309 309 308 306 304 303 302 302 303 301 299 302 303 303 302 300 299 300 303 297 298 297 297 296 297 297 298 297 298 300 301 300 300 299 298 298 297 298 299 300 304
299 303 307 311 313 315 317 318 319 321 323 325 326 329 327 326 325 326 326 329 326 319 324 323 327 330 330 330 330 332 332 333 332 329 326 326 324 322 322 319 316 314 314 311 309 308 309 308 306 305 305 301 301 300 301 301 304 302 300 299 296 296 299 303 303 303 301 297 296 296 296 296 297 298 298 298 300 300 300 299 296 296 298 300 301
298 301 304 308 311 313 315 317 318 319 320 321 323 324 322 322 321 317 317 318 317 318 320 322 323 322 325 327 329 330 331 330 331 330 326 327 326 325 323 321 318 315 312 310 309 309 309 309 308 305 304 304 302 302 300 300 302 305 307 299 296 295 298 304 298 300 295 295 296 296 297 297 299 296 296 297 298 298 298 298 298 297 297 298 299
295 299 302 306 309 311 313 315 316 317 319 319 321 322 323 324 321 321 319 319 320 319 319 322 321 320 323 326 326 328 329 331 332 331 329 326 328 327 326 323 320 317 313 312 312 312 310 309 308 307 305 305 307 305 300 298 299 301 305 308 310 308 305 298 300 300 293 294 297 296 298 298 298 296 295 296 297 296 295 296 298 297 297 296 296
296 294 296 302 306 309 311 314 316 316 317 318 319 320 322 323 323 323 323 322 321 323 324 324 325 324 323 323 325 325 327 328 329 331 331 329 328 328 326 325 323 321 316 314 313 312 311 309 309 308 307 306 305 303 301 298 297 298 300 303 303 299 300 299 298 298 298 296 291 294 295 296 296 294 295 296 297 297 295 294 295 296 297 295 294
294 293 296 298 304 307 309 311 313 314 315 317 317 320 321 321 321 322 322 322 322 322 323 322 319 319 321 322 323 324 325 326 327 328 329 329 327 328 328 326 325 324 320 317 316 316 314 312 310 310 309 307 305 304 304 303 298 299 300 300 301 302 301 298 298 301 302 299 302 294 293 293 293 293 293 295 297 297 296 295 293 295 295 295 294
294 295 296 297 299 303 305 306 310 312 312 314 317 317 320 320 320 320 319 320 321 321 314 311 317 315 317 318 317 320 322 324 325 326 327 328 326 326 327 327 326 325 319 321 319 318 316 314 311 309 309 309 307 307 307 306 302 303 301 298 300 300 301 299 298 297 295 296 298 302 302 293 291 291 291 293 295 297 297 295 293 292 294 295 295
293 294 295 297 299 301 303 305 307 309 309 311 314 315 316 316 318 318 318 319 318 315 313 315 311 309 313 315 314 315 317 320 322 323 324 325 326 326 325 325 326 326 322 323 322 320 319 317 314 311 309 308 308 306 305 307 306 305 306 305 301 299 297 297 296 297 298 296 296 300 303 303 299 296 292 292 293 294 296 295 293 292 292 294 294
294 295 296 296 297 300 302 304 303 304 305 309 311 313 314 315 317 317 317 316 316 315 314 314 311 307 310 312 311 312 314 315 318 320 321 322 323 324 324 325 326 322 322 323 322 321 321 319 317 314 311 310 310 309 307 306 307 307 306 304 302 300 298 298 300 300 298 296 294 294 297 300 301 300 299 293 293 293 293 293 293 293 293 293 293
Wind_Speed
5 7 5 6 8 7 7 7 6 9 11 12 11 9 9 9 9 10 9 10 10 10 10 10 13 14 13 13 13 14 15 16 16 16 15 15 15 15 15 16 17 17 16 16 17 17 17 16 15 15 15 14 16 15 17 17 18 19 19 18 17 17 17 17 16 14 15 16 16 18 19 19 20 19 19 19 20 19 16 15 15 14 13 15 19
10 8 7 6 6 6 6 7 9 10 12 12 11 10 9 9 9 9 9 10 10 10 11 10 11 13 13 13 13 14 15 16 16 16 15 14 14 15 16 16 16 16 15 15 15 15 15 15 14 14 15 15 16 16 17 18 19 18 18 18 18 17 17 16 15 14 13 13 16 17 18 19 19 18 18 18 19 19 15 15 15 13 12 17 18
9 9 7 6 6 7 7 6 7 11 12 12 10 10 10 9 8 8 8 10 10 9 10 12 15 13 12 13 13 14 15 16 15 15 14 14 13 13 13 13 14 15 16 16 15 16 15 15 15 15 15 15 15 16 16 17 17 17 17 18 17 16 16 15 15 14 14 14 15 18 18 19 18 19 19 18 19 17 14 14 15 15 13 18 17
10 7 8 6 5 6 8 7 8 11 11 11 10 10 10 10 9 8 9 9 10 10 10 13 14 13 14 13 13 14 15 15 15 14 14 13 13 13 14 14 14 14 14 14 15 16 16 15 16 15 15 15 15 15 16 16 17 17 17 17 16 15 15 15 15 15 15 13 11 10 10 12 14 18 18 18 19 18 14 17 18 19 19 18 19
10 7 7 7 6 5 8 8 9 12 11 10 11 11 11 10 10 9 7 10 10 11 10 12 14 14 13 13 14 14 15 15 14 14 14 13 13 13 14 14 15 14 13 14 16 16 15 15 15 15 15 15 15 15 16 16 17 16 17 16 16 15 15 15 15 15 14 13 11 8 9 12 11 16 18 19 19 17 17 19 19 19 19 20 20
10 9 7 7 7 8 9 10 12 12 11 11 11 11 11 10 9 9 9 10 10 11 10 13 13 13 13 13 13 14 14 14 14 13 13 14 13 13 13 13 13 14 14 15 15 15 15 15 15 16 16 15 14 14 15 16 16 16 16 16 15 15 15 16 15 14 13 11 10 8 8 11 11 11 18 19 19 17 19 20 20 19 20 20 20
10 8 8 8 4 6 9 10 12 12 12 11 11 12 11 10 9 9 9 10 10 10 10 12 13 12 11 12 13 14 15 15 15 14 14 13 13 13 14 13 13 14 14 13 14 15 16 17 15 16 16 16 15 14 14 14 15 16 16 16 16 16 16 15 15 14 12 8 7 9 9 10 11 10 18 18 19 20 20 20 20 20 20 20 20
8 7 8 7 4 6 8 9 12 12 12 12 11 11 10 10 10 9 9 8 10 10 10 13 12 12 11 12 13 14 14 15 15 14 13 12 13 13 13 13 14 14 13 13 14 15 15 16 15 15 15 15 16 15 15 15 16 16 16 16 16 16 16 15 14 12 10 9 8 10 10 11 12 10 18 19 20 20 19 22 21 20 19 19 12
8 8 8 8 7 7 7 8 13 13 12 12 11 11 11 10 10 10 10 10 9 10 10 12 12 13 13 12 12 13 13 14 14 14 12 12 12 13 13 13 13 13 13 13 14 15 15 15 15 15 14 14 14 14 14 15 15 15 16 16 16 15 14 14 12 10 8 8 10 10 11 12 11 11 18 21 21 20 18 17 18 20 19 14 16
9 8 8 7 5 6 7 9 11 13 13 12 11 11 11 11 10 10 10 9 10 10 9 9 11 11 12 12 12 13 14 15 15 14 13 12 12 13 13 12 12 12 12 13 15 14 15 14 14 14 14 14 14 14 14 15 15 15 16 16 15 15 14 13 11 9 8 11 12 12 11 12 11 11 16 19 20 20 18 17 15 14 12 14 19
9 7 7 6 5 6 10 10 10 11 13 12 11 11 11 11 11 11 10 9 9 10 9 10 11 11 11 12 12 12 13 14 15 14 12 11 13 13 12 13 12 11 12 12 14 14 14 14 14 15 15 14 14 14 14 15 15 16 16 15 15 14 13 11 8 7 8 9 11 10 11 10 10 10 17 18 19 19 15 15 15 15 17 17 17
8 6 7 6 7 7 10 9 10 11 12 11 11 11 11 10 11 12 11 10 10 10 9 9 10 11 11 10 12 14 13 14 13 13 13 11 12 12 12 12 11 12 12 12 13 14 13 13 14 15 15 15 15 15 15 15 15 16 15 15 14 13 12 10 6 6 6 7 7 7 8 10 11 12 16 17 18 16 15 15 15 16 16 17 17
7 6 6 7 7 6 9 7 10 11 12 12 11 10 11 10 11 11 11 11 10 9 9 9 9 9 9 11 10 11 12 13 13 13 12 11 8 10 12 12 11 10 11 11 11 11 12 13 14 14 13 14 14 14 14 14 15 15 15 14 14 13 11 10 6 7 6 6 5 6 8 10 10 14 14 15 15 15 16 16 16 16 17 17 16
7 6 6 7 6 7 8 7 9 10 10 10 10 10 10 10 10 10 10 10 10 9 8 8 8 10 10 10 10 11 11 12 12 12 11 11 9 8 13 11 11 10 10 10 10 12 13 13 13 14 13 13 13 13 13 14 14 14 14 13 12 12 9 8 8 6 6 6 6 6 9 9 11 16 16 16 15 16 16 17 18 18 16 15 16
9 6 6 7 7 7 8 7 9 10 9 10 10 10 10 10 9 9 9 9 9 9 8 7 6 9 10 10 11 11 12 12 12 12 10 9 9 9 13 11 11 10 10 10 10 11 11 12 13 13 13 12 12 12 13 13 13 14 13 13 12 10 8 6 5 5 6 5 5 6 7 9 13 14 15 15 16 16 16 16 15 14 15 16 15
10 6 6 6 7 7 7 6 8 9 9 9 9 8 9 9 8 9 9 8 8 8 8 7 6 9 9 9 12 11 10 11 11 12 11 9 8 9 13 11 11 11 10 10 10 11 12 12 12 12 11 11 11 11 12 12 12 12 12 12 11 10 9 5 5 5 5 5 5 7 8 9 13 14 14 15 15 15 15 14 14 14 15 15 15
8 9 8 6 6 7 7 6 5 8 8 8 7 7 7 7 7 8 8 8 8 8 8 7 7 8 8 7 7 9 9 10 10 9 10 9 7 7 12 12 11 10 9 9 10 10 11 11 11 11 11 11 11 11 12 12 12 11 11 11 9 8 9 7 5 4 4 4 4 4 7 9 13 15 15 15 14 12 12 14 14 14 14 14 13
8 9 9 8 5 6 6 5 5 5 5 6 7 7 7 7 7 7 6 6 7 7 6 6 6 8 8 9 9 10 9 8 7 7 8 9 6 5 9 11 11 10 9 9 10 10 11 11 11 11 11 11 11 12 12 11 11 10 10 8 8 9 9 7 5 3 4 4 4 4 8 10 13 12 11 12 12 13 12 12 12 13 13 13 13
7 8 8 8 6 6 6 5 5 4 5 4 3 5 7 6 7 7 6 6 6 6 6 7 8 8 8 9 9 9 8 9 9 11 11 9 5 3 6 12 13 11 9 8 8 10 11 11 11 11 12 12 12 12 12 11 10 10 9 8 9 9 8 5 5 3 3 3 4 6 7 10 10 12 12 13 12 12 12 14 13 12 10 10 12
7 8 8 8 6 6 5 5 6 5 4 4 4 4 5 6 6 6 6 6 7 7 8 8 9 9 9 9 9 8 7 7 10 8 9 8 6 4 9 11 12 10 9 8 9 9 10 11 11 12 12 12 12 12 11 11 10 10 9 7 8 7 5 4 5 3 3 4 5 4 7 8 15 14 12 13 13 12 11 10 11 10 10 11 11
7 9 8 8 8 6 7 6 6 6 5 5 4 5 5 6 4 5 7 7 7 8 9 9 8 7 7 8 7 6 4 4 5 5 7 6 6 6 6 10 10 9 7 8 9 9 10 11 11 12 12 11 10 10 9 10 9 9 8 7 6 5 3 5 5 2 2 3 3 1 5 12 13 12 10 10 9 12 13 11 10 11 12 11 10
8 9 8 8 8 7 6 6 6 6 5 5 5 4 4 5 4 3 4 6 6 7 6 5 5 5 6 5 4 3 3 3 4 5 4 6 6 8 8 8 10 9 8 8 8 9 9 10 11 12 11 10 8 5 5 7 9 7 6 6 4 3 3 4 5 2 2 1 1 3 10 10 12 12 11 10 12 11 10 11 9 9 9 10 10
9 9 8 9 8 7 6 6 6 6 6 6 5 5 5 5 5 3 3 4 5 6 5 5 4 4 4 4 3 3 3 3 4 4 4 6 7 8 8 8 9 9 8 7 8 8 9 10 11 11 10 8 5 3 3 2 3 5 5 3 2 2 2 3 4 3 1 1 1 1 8 11 9 14 12 12 11 11 10 10 9 9 8 8 10
9 10 8 7 7 7 8 8 7 7 6 5 5 5 5 5 5 5 3 4 4 3 4 4 4 4 4 3 3 3 3 3 5 7 6 4 5 7 8 10 9 8 9 6 6 7 9 11 10 8 5 3 3 3 2 2 2 2 2 2 2 1 2 1 3 3 2 2 1 1 7 9 9 10 10 10 11 9 6 8 9 11 12 9 7
7 7 6 7 9 8 6 8 8 6 7 5 6 6 5 5 5 5 4 4 4 3 3 4 4 4 4 3 3 3 3 3 3 3 3 3 3 3 3 3 3 4 6 4 3 3 3 3 3 3 3 3 3 2 2 3 2 2 2 2 2 2 1 1 1 3 2 0 1 3 6 8 10 11 13 13 12 10 7 8 8 7 8 9 10
5 8 9 7 9 8 6 6 8 8 8 7 7 5 6 5 6 6 4 3 4 4 3 4 3 3 3 4 3 4 3 3 3 3 3 3 3 2 2 3 3 3 2 3 2 2 2 2 3 3 2 2 2 2 2 1 2 2 2 2 2 1 1 1 1 0 2 0 1 3 3 7 9 8 9 10 11 10 8 6 7 7 8 8 9
7 8 7 6 7 9 7 7 8 9 10 8 6 5 7 6 5 6 6 5 4 6 5 4 3 4 4 4 4 3 3 3 3 3 3 2 3 2 2 2 3 2 1 3 3 1 1 2 2 2 2 2 2 2 2 2 2 2 2 2 1 1 1 1 1 1 1 0 1 4 2 9 8 8 12 11 12 11 7 7 8 8 8 8 6
8 9 8 7 7 10 9 8 8 9 8 9 9 6 7 7 6 6 6 6 4 5 6 4 4 3 4 3 3 4 4 4 4 4 3 2 3 2 2 2 2 2 2 2 3 1 1 1 2 2 2 2 2 2 2 2 2 1 2 1 1 1 1 1 0 0 0 0 0 1 4 5 5 8 10 9 12 9 10 12 9 6 7 9 9
9 9 8 8 9 8 9 10 8 10 9 8 9 8 7 7 6 5 6 7 5 3 3 5 5 3 4 4 5 5 4 4 4 4 3 3 3 3 3 3 2 2 3 2 2 3 2 1 2 2 2 2 2 2 1 2 1 1 1 2 1 1 1 1 1 0 0 0 0 1 2 3 6 7 10 8 11 10 9 7 12 12 9 8 7
10 9 8 8 7 8 9 10 9 9 9 9 8 8 9 8 9 6 6 7 8 5 5 4 3 5 6 4 4 4 5 5 5 4 5 5 3 3 3 3 3 2 3 3 2 2 3 2 2 2 2 2 2 1 1 2 1 1 1 1 1 1 1 1 1 1 0 0 0 1 2 2 3 6 9 9 11 10 8 8 6 9 10 10 10
9 11 9 7 7 9 9 9 8 7 7 9 8 9 9 9 9 7 6 6 6 7 5 4 4 5 5 4 4 4 4 3 4 4 4 5 5 4 3 3 3 3 3 3 2 3 2 2 3 3 3 3 2 1 1 2 1 1 1 1 1 0 1 1 1 1 1 1 1 1 1 3 5 7 9 9 12 10 9 10 8 9 6 4 4
12 12 9 8 7 10 10 10 9 8 8 9 7 8 10 10 8 8 7 6 8 6 6 6 4 4 6 7 4 4 4 3 4 5 5 5 6 6 4 4 3 3 3 3 3 3 3 2 2 2 2 2 2 2 1 2 2 1 1 1 1 1 1 1 1 1 1 2 2 1 1 1 3 8 12 11 14 13 12 13 10 11 11 12 11
9 9 9 9 10 9 10 10 10 9 10 9 8 7 7 9 9 9 8 5 7 7 6 6 6 4 6 6 4 4 4 4 4 5 5 4 6 6 6 4 4 3 3 4 4 3 3 3 2 2 2 2 2 2 1 1 1 1 1 1 1 2 1 1 1 2 2 2 3 3 2 2 2 4 7 11 15 16 14 12 16 12 13 10 11
7 6 8 11 9 7 7 7 9 11 10 9 9 8 7 8 8 8 7 8 6 6 7 6 6 6 5 5 5 5 4 4 4 5 4 4 5 5 6 5 4 4 4 4 4 3 3 3 3 3 3 3 3 2 2 2 1 1 1 1 1 1 1 2 2 2 1 2 3 1 2 2 2 3 4 7 11 14 16 17 16 13 13 14 13
6 8 12 12 11 10 7 7 8 11 10 10 9 9 8 7 8 8 8 9 8 8 6 6 7 6 7 5 6 5 5 5 5 5 5 4 5 5 5 5 4 4 4 4 4 3 3 4 4 4 2 2 2 2 2 2 2 3 2 1 2 1 1 2 2 3 3 3 3 2 1 2 4 4 3 2 8 10 14 15 16 16 15 15 13
11 10 9 9 11 11 11 10 9 10 11 11 10 9 9 8 7 7 8 8 8 9 8 7 7 7 7 7 10 8 7 7 6 5 5 5 6 5 5 4 6 5 4 4 5 6 5 4 4 5 5 5 4 4 3 3 2 3 2 2 2 1 2 3 3 3 2 3 3 2 2 2 3 4 4 3 4 7 10 13 13 13 14 14 15
10 10 11 10 11 11 12 13 13 13 11 11 11 9 8 8 8 8 8 8 8 8 8 9 9 9 9 8 9 10 9 8 8 7 5 6 6 5 6 7 6 6 6 5 4 3 5 5 5 5 5 4 5 5 5 4 4 4 3 3 2 2 3 4 3 2 2 4 4 3 3 3 3 4 4 4 4 4 8 10 10 10 11 14 15
9 10 10 12 12 10 11 12 11 11 11 10 10 10 9 8 7 7 7 8 8 8 8 8 8 8 8 9 10 10 11 11 10 8 7 6 6 6 4 6 7 7 7 7 8 8 7 7 7 7 8 7 7 8 8 6 5 5 5 5 4 3 4 4 3 3 4 5 4 5 4 3 3 3 4 4 5 5 5 7 10 11 12 12 9
8 9 9 9 8 9 9 11 11 11 11 10 9 8 8 8 7 7 8 9 8 7 7 8 9 8 8 9 10 10 10 12 12 11 10 8 8 7 6 6 4 3 4 6 4 4 5 6 7 5 2 3 3 2 2 3 3 3 4 6 5 7 5 3 2 3 5 5 4 4 3 4 3 3 4 4 4 3 4 5 5 5 7 13 12
8 8 10 9 10 9 9 9 10 10 9 8 8 7 6 7 8 7 8 8 8 8 8 10 9 10 10 10 10 10 9 8 7 6 6 7 7 6 7 6 7 7 7 7 7 6 8 7 8 6 6 4 4 3 2 3 0 1 3 4 4 4 5 3 4 5 5 5 5 4 5 4 5 4 5 4 3 4 4 4 5 6 6 9 13
9 10 10 11 12 11 9 12 10 9 8 8 8 9 9 8 8 10 10 7 7 6 6 6 7 7 8 10 11 11 12 13 13 14 11 10 10 8 7 7 8 8 9 9 7 6 7 7 5 4 6 6 5 2 3 3 2 3 2 4 6 4 6 5 6 6 7 6 5 6 4 5 5 6 6 4 4 4 4 4 4 5 6 7 9
10 9 12 12 10 8 10 10 6 9 10 10 9 8 9 9 8 8 7 7 6 7 7 6 7 7 8 7 6 6 9 10 11 12 12 11 9 8 7 8 7 7 9 12 10 9 9 7 6 5 4 6 5 5 3 6 2 8 6 4 4 5 9 6 7 8 8 7 6 6 6 7 7 7 4 5 5 5 5 4 4 4 5 6 7
4 8 9 7 8 9 10 8 7 9 10 9 8 9 7 7 8 6 5 4 3 5 7 6 6 5 5 8 9 9 6 6 6 7 8 10 12 12 12 11 10 9 7 7 8 9 9 10 10 8 5 5 6 5 8 10 9 4 2 3 5 3 4 5 7 11 9 7 6 7 8 7 9 6 5 6 6 6 5 4 6 7 7 8 6
6 5 6 8 7 8 8 7 7 7 8 8 9 6 5 4 4 4 3 5 5 3 4 3 6 8 9 7 5 5 8 10 12 13 12 11 11 11 10 9 11 12 13 11 10 10 8 8 9 10 7 5 5 8 9 9 7 7 5 8 2 0 7 8 9 9 12 11 9 10 6 9 7 7 6 8 8 6 6 5 8 8 8 7 7
5 6 6 6 6 8 7 8 8 8 7 8 9 6 4 4 3 2 1 1 1 2 3 5 5 5 6 7 9 8 8 7 5 6 8 10 9 8 7 7 8 7 8 8 8 12 11 10 11 11 11 11 8 7 7 9 10 10 8 5 0 3 8 3 2 5 5 8 10 11 10 12 14 8 8 10 6 6 6 6 9 9 9 8 6
4 4 4 5 6 6 7 7 7 7 8 8 9 8 8 7 6 6 7 5 7 5 8 10 7 7 9 6 6 7 7 8 8 8 8 8 9 11 13 13 12 11 11 10 9 7 7 8 10 10 11 11 11 10 6 5 9 11 12 9 7 8 3 2 3 7 2 5 5 8 12 12 11 12 9 9 9 8 9 8 8 8 9 9 8
5 4 4 5 6 6 7 8 8 7 7 8 9 8 8 8 10 10 10 9 9 9 7 6 7 6 5 6 6 6 7 8 8 8 8 9 10 8 7 7 7 8 10 11 11 11 11 12 10 10 11 12 11 9 9 5 4 8 9 11 12 3 0 4 9 2 10 2 5 7 8 10 7 11 13 11 11 9 7 8 9 8 7 7 7
5 4 3 2 4 6 6 7 6 6 7 7 8 9 9 9 9 10 8 9 9 10 5 5 4 4 6 8 7 6 7 8 8 8 8 7 6 7 8 10 11 12 10 10 10 10 8 8 12 15 13 10 11 11 10 8 11 9 12 15 15 12 8 6 4 9 10 11 9 4 5 9 7 10 12 10 12 11 10 8 10 11 9 10 8
5 5 4 3 1 2 4 3 5 5 5 6 7 7 6 7 7 6 6 6 6 6 1 3 5 5 7 6 6 7 7 8 8 9 9 9 7 7 7 8 8 9 8 10 11 12 15 15 13 11 12 13 11 13 11 10 10 12 7 11 10 12 11 10 7 4 10 9 16 13 11 3 5 7 7 13 10 10 10 9 10 10 10 10 10
5 4 5 4 3 3 3 3 3 1 2 4 4 4 4 4 5 5 7 7 5 5 4 5 4 3 6 7 6 6 6 7 8 8 8 9 9 8 7 7 7 7 8 10 9 8 7 8 10 11 12 13 11 12 13 11 10 10 11 9 9 9 7 8 10 11 12 13 16 15 9 11 11 9 12 13 13 11 9 10 10 11 10 8 9
6 6 7 6 5 4 3 4 2 2 2 2 3 5 5 5 6 7 8 8 8 7 6 7 6 5 7 7 7 6 5 7 7 7 8 8 9 10 10 10 9 7 7 6 7 8 7 6 7 10 13 16 13 13 16 15 13 13 13 11 12 12 12 13 12 12 13 10 10 15 14 14 15 14 8 9 9 9 11 8 9 9 9 9 8
Wind_Direction
188 163 177 182 158 152 142 138 133 119 107 99 98 102 98 97 105 99 100 108 101 100 103 107 98 90 89 94 95 95 93 88 87 87 87 88 90 89 86 83 82 81 81 82 81 80 80 81 82 82 79 82 86 83 81 78 79 76 77 75 69 59 53 50 49 59 76 81 85 88 86 85 82 79 77 76 74 71 65 61 67 71 73 74 76
169 166 171 180 174 158 134 129 124 116 107 101 99 103 104 105 104 103 111 107 106 105 106 107 104 96 91 88 92 100 93 88 86 86 86 85 84 89 90 90 88 86 84 83 81 80 80 81 84 85 86 84 84 87 83 81 79 75 72 70 64 59 56 53 53 53 50 68 86 84 85 84 83 84 83 81 81 80 76 73 73 77 78 80 79
146 155 170 170 167 151 131 134 125 113 102 100 109 110 109 106 103 102 91 112 119 119 102 100 97 95 92 92 99 99 93 92 89 85 86 87 89 90 91 89 85 80 79 82 83 82 80 79 81 85 87 87 88 87 85 83 78 74 74 68 65 62 59 55 52 52 52 50 63 76 82 83 83 84 84 86 88 89 89 87 86 85 85 83 79
142 152 158 165 165 161 135 128 129 109 105 111 116 111 107 109 110 111 114 110 109 106 104 101 95 96 93 99 101 97 95 92 91 88 87 88 89 90 90 88 90 91 88 85 84 84 86 88 85 83 85 89 90 86 87 84 76 73 70 68 65 62 58 55 52 50 49 44 45 64 82 89 87 85 86 87 87 82 80 81 82 85 88 86 87
145 149 156 165 168 154 137 145 134 111 109 118 116 110 104 107 110 111 113 109 107 104 105 97 89 91 95 102 103 95 93 91 90 91 91 88 85 88 89 87 85 89 91 91 89 88 86 86 85 88 89 89 91 94 88 80 72 72 70 69 66 62 61 59 53 49 45 44 38 59 81 87 89 90 91 90 88 86 84 82 80 74 73 73 72
149 153 160 165 160 159 151 154 130 119 121 117 113 106 105 105 107 108 113 112 112 114 114 101 91 89 98 99 97 98 95 93 90 87 83 87 90 89 91 93 91 86 86 92 97 94 90 84 85 90 91 92 93 90 86 82 79 71 70 69 68 64 60 58 55 52 49 44 47 60 58 87 86 90 91 89 80 72 76 78 76 77 75 74 75
149 153 156 160 154 153 139 148 131 127 124 120 109 104 106 107 110 111 110 112 111 104 108 101 95 94 94 98 95 95 98 96 94 92 90 90 91 94 94 95 95 92 91 94 98 96 91 89 89 89 92 93 91 91 88 87 81 80 76 70 68 66 62 59 58 56 49 54 65 74 78 81 88 87 84 84 85 82 78 78 78 71 68 68 70
147 150 156 156 145 154 148 155 131 130 126 117 111 110 113 112 106 104 101 106 111 106 107 100 100 102 100 100 98 96 91 93 93 87 91 98 100 101 99 92 88 88 91 93 96 96 93 93 92 92 93 95 93 88 87 87 85 78 74 73 70 67 64 64 63 60 50 66 64 79 80 82 84 85 83 81 79 78 77 74 71 70 68 67 64
151 154 156 156 158 159 156 155 135 132 124 119 119 121 118 115 112 112 112 106 104 108 114 112 106 105 106 102 101 97 98 98 93 96 97 103 107 102 101 97 94 94 95 96 95 95 97 98 97 95 90 87 87 87 89 87 81 77 80 78 73 69 67 64 60 54 64 66 76 79 78 82 84 85 81 78 75 72 66 69 68 68 70 70 71
153 151 157 157 160 160 156 159 139 133 128 125 125 125 123 121 121 115 115 121 122 125 125 113 111 114 106 97 95 97 97 100 98 96 100 105 107 104 100 101 100 99 99 103 104 99 97 95 90 89 96 93 92 90 89 89 87 86 83 79 74 70 67 64 60 57 70 82 85 80 78 81 84 83 83 80 77 76 73 72 75 73 71 72 76
154 153 154 153 154 167 160 158 140 135 131 129 132 127 126 125 123 121 119 118 112 117 124 115 108 105 101 105 99 100 100 102 105 105 104 103 103 110 108 93 89 99 103 103 105 104 101 99 99 97 96 100 96 97 93 85 82 82 79 74 71 70 67 63 60 72 70 75 86 88 85 85 88 89 88 85 81 79 75 77 81 79 74 73 73
155 156 155 154 159 171 161 158 142 137 134 137 135 134 132 132 128 129 127 124 126 121 120 114 113 114 109 110 108 99 101 103 106 107 105 105 112 112 106 106 111 109 106 101 105 108 108 103 98 101 104 106 102 92 90 88 85 81 79 75 69 66 62 53 58 67 68 73 75 81 86 90 91 95 94 94 88 86 86 84 81 81 80 79 79
140 148 155 155 160 167 160 161 143 139 138 139 136 137 139 140 138 133 134 131 128 126 124 121 119 116 115 114 114 109 103 105 107 108 108 111 111 110 103 97 97 103 104 106 105 102 103 103 105 104 104 101 99 96 95 95 93 90 86 81 75 69 60 49 61 60 61 61 70 79 89 92 89 91 91 90 90 88 87 89 89 88 81 79 79
139 146 150 160 159 162 157 161 144 140 141 140 141 143 146 144 142 139 137 136 134 133 127 121 123 125 120 118 113 110 109 111 108 108 110 111 115 116 106 103 100 91 87 94 95 101 105 105 102 102 107 103 100 97 93 93 94 94 90 85 79 73 66 64 57 57 55 57 59 61 85 92 95 94 92 93 94 93 90 89 88 85 83 81 83
160 149 144 156 165 162 158 156 147 145 142 144 149 152 150 146 141 138 132 130 129 130 125 117 112 118 116 117 109 115 115 109 106 106 107 110 114 113 105 105 99 100 96 96 103 103 103 101 99 100 100 104 100 95 96 95 95 95 92 87 80 73 70 72 64 64 68 61 64 67 69 90 90 92 93 96 96 93 91 89 86 87 87 85 87
167 152 144 152 157 160 158 154 148 145 145 147 154 152 150 145 141 137 131 128 130 131 127 120 114 119 121 120 123 119 118 115 107 105 103 110 117 122 113 108 103 97 96 98 101 100 96 95 99 102 101 101 98 96 95 95 93 93 90 86 79 77 74 75 77 77 76 76 78 82 97 101 102 101 99 95 93 94 93 90 90 88 90 91 88
168 166 159 152 151 158 158 153 148 148 144 148 148 146 144 143 142 138 138 134 135 133 135 124 119 121 122 106 90 102 104 115 118 111 110 114 118 116 119 116 109 103 106 110 107 104 105 106 107 109 108 108 108 107 103 96 94 90 88 85 78 71 76 74 77 73 82 78 67 73 88 92 95 102 103 104 101 96 97 90 89 94 93 88 92
172 171 170 164 151 155 158 152 138 149 142 141 141 140 139 141 137 135 136 137 137 133 125 122 91 75 83 95 104 106 113 122 124 126 120 105 90 85 119 118 110 106 101 105 108 105 109 112 115 117 117 115 115 115 108 98 98 95 93 79 73 74 75 78 84 75 85 91 94 99 107 107 102 101 101 100 101 102 98 98 98 97 96 107 101
174 178 174 172 163 154 158 153 148 144 143 128 134 136 138 138 138 138 134 130 117 107 105 80 79 77 79 83 89 91 86 81 87 98 100 104 97 89 62 95 102 102 100 108 115 118 117 120 120 119 121 121 118 115 105 95 89 88 81 76 81 82 89 94 87 73 72 93 94 104 107 118 124 107 102 104 103 101 97 97 99 97 100 100 92
182 185 177 174 170 159 151 158 158 152 144 131 132 127 132 137 138 137 132 123 111 98 86 81 78 77 78 82 83 86 85 87 92 98 102 106 96 76 95 106 108 108 113 122 120 123 127 127 125 122 120 120 114 99 97 97 92 87 78 69 81 93 96 103 91 50 104 104 109 122 139 129 102 107 109 104 104 104 107 106 99 107 109 105 109
186 193 189 181 177 161 159 162 163 157 152 139 143 145 142 134 132 135 130 121 115 103 99 96 92 85 92 88 87 84 88 89 94 95 107 111 114 81 95 116 110 112 122 134 134 132 134 127 125 121 113 99 81 76 76 86 87 84 82 75 91 94 103 111 108 128 108 109 117 115 139 111 117 117 120 118 114 104 99 108 122 123 115 115 103
190 192 194 189 184 182 165 162 160 158 154 152 163 152 149 143 134 138 138 129 119 117 111 113 107 104 97 96 92 94 96 95 98 108 109 117 107 89 85 100 111 117 128 139 139 137 124 131 121 103 99 92 81 90 82 64 61 68 74 90 93 101 118 125 131 132 96 82 35 130 118 123 127 130 124 123 118 114 115 112 118 117 106 103 117
196 195 194 192 189 187 172 164 166 160 157 159 161 158 156 160 156 141 137 135 128 124 123 121 120 118 111 107 106 106 102 101 107 118 112 121 117 103 94 90 106 113 114 125 128 130 139 121 101 99 92 85 85 84 81 80 76 59 69 66 73 80 114 134 133 133 60 66 79 348 133 138 149 129 131 123 118 116 121 119 123 114 117 125 123
194 194 189 187 189 192 179 183 171 165 164 165 163 161 164 163 164 164 158 151 141 132 128 124 128 127 119 119 117 107 103 106 106 111 112 113 119 112 104 90 84 82 86 88 93 113 104 88 86 85 85 75 91 89 91 93 84 69 69 67 67 47 62 136 136 124 97 353 30 293 146 146 134 133 134 134 129 130 133 136 137 136 136 130 113
192 183 190 185 193 193 178 182 182 173 171 168 168 170 166 162 161 166 161 166 156 137 135 136 137 133 132 130 124 117 114 112 118 116 116 116 113 112 104 96 93 81 96 87 88 66 75 89 87 72 82 92 97 94 109 105 92 87 76 65 72 58 54 10 103 132 112 333 28 255 155 160 153 145 141 139 135 137 150 144 154 135 132 129 134
164 184 195 190 189 188 189 173 179 187 186 185 182 169 164 178 164 168 161 172 167 161 149 154 149 146 145 136 129 125 121 126 127 128 126 131 125 130 116 106 99 95 92 103 95 86 87 97 93 93 87 82 76 81 69 76 110 94 81 66 67 67 58 44 3 7 98 11 87 293 165 184 170 168 148 144 143 143 156 157 142 151 150 141 140
188 197 187 192 186 188 189 179 183 188 190 193 183 171 188 198 175 166 176 186 179 178 174 166 158 152 146 149 147 147 141 142 143 143 142 145 135 137 124 111 110 105 93 113 94 77 91 105 97 90 81 88 78 67 69 63 55 90 85 69 61 64 74 86 52 339 35 66 313 347 126 161 184 186 158 163 151 151 153 161 163 167 143 145 149
198 201 194 191 189 192 189 187 190 187 190 188 191 191 193 194 188 159 181 182 169 190 190 177 157 162 161 164 157 158 160 160 160 160 154 150 148 130 121 119 105 108 113 107 116 102 100 85 101 95 98 78 90 73 75 70 68 63 103 95 84 82 97 109 94 352 14 123 309 322 146 182 192 183 180 176 156 159 161 169 169 169 172 160 163
203 203 198 194 195 192 187 196 192 192 194 187 192 197 201 197 187 174 188 169 187 180 179 178 181 168 175 172 167 164 172 170 168 165 155 159 146 145 147 133 125 127 135 124 131 135 120 117 118 119 102 107 108 101 96 86 87 78 118 128 132 128 139 154 149 4 322 104 313 347 21 136 168 180 184 189 180 174 172 190 175 171 169 167 169
205 201 197 201 190 186 196 198 196 192 195 191 192 196 201 204 202 193 193 175 198 194 163 185 183 183 188 183 185 178 177 176 168 159 172 170 157 149 153 150 147 148 152 149 157 145 146 147 130 125 129 131 131 126 146 129 108 119 123 136 148 159 171 178 181 173 212 251 228 215 5 314 255 211 197 194 184 187 188 184 202 207 188 179 184
195 204 202 198 184 186 198 199 196 195 191 196 191 194 195 208 203 204 189 185 185 190 180 177 181 196 196 182 186 189 175 177 170 166 175 174 176 171 173 157 160 162 167 145 151 154 150 157 159 156 161 154 146 142 171 145 144 130 98 144 111 215 198 225 208 208 228 243 226 211 279 320 240 224 209 220 183 185 183 181 192 195 208 217 182
204 206 203 194 185 192 195 196 199 196 200 202 192 191 194 201 204 200 203 185 191 192 186 193 188 191 191 195 192 187 181 174 172 170 180 177 182 186 181 179 173 168 171 155 148 154 146 132 127 133 137 148 138 149 157 171 157 135 149 160 175 203 226 244 233 233 252 248 222 204 193 262 281 219 206 223 187 189 186 181 194 192 190 188 186
212 205 199 192 198 192 192 194 193 198 202 204 203 199 190 192 200 202 207 187 184 189 192 189 200 178 189 189 186 185 189 182 179 178 178 177 186 187 193 192 179 172 165 153 140 140 141 139 130 142 140 144 147 147 133 169 166 157 188 189 223 201 216 246 242 248 254 263 252 176 216 223 263 271 271 239 198 200 190 189 196 200 203 207 213
202 199 194 206 200 200 191 190 192 198 201 205 204 206 198 191 193 199 195 199 197 196 196 191 190 186 174 178 182 185 188 189 181 182 183 180 181 189 194 195 185 173 161 157 161 156 154 155 155 165 171 178 180 170 176 178 166 175 215 227 243 240 232 231 241 250 254 255 269 224 207 216 255 283 261 290 240 195 186 190 202 211 223 209 213
184 199 205 205 198 202 194 203 190 199 197 205 204 207 204 196 192 194 196 191 199 204 198 192 193 187 186 176 177 184 186 190 193 184 188 184 181 189 197 198 177 172 171 175 159 158 159 173 170 178 163 186 180 179 200 192 175 200 216 220 227 235 250 238 236 247 243 240 255 253 236 242 227 243 285 264 291 228 197 193 193 203 210 214 224
204 202 204 198 205 200 197 204 197 203 201 203 207 208 206 203 196 192 191 189 193 198 198 196 193 192 191 190 193 180 180 189 194 193 190 192 189 192 199 179 180 179 183 168 171 172 175 171 194 183 177 196 182 188 192 186 189 206 223 230 230 241 244 243 234 234 253 263 247 257 237 246 263 247 216 241 264 289 243 206 200 197 208 224 213
206 199 198 197 207 203 198 201 203 205 205 202 205 207 205 206 201 197 197 190 194 198 199 199 197 195 191 192 187 192 194 189 187 191 197 195 198 196 191 185 179 184 178 178 207 208 169 174 187 207 211 183 192 191 190 190 184 194 197 224 219 216 239 239 233 238 249 249 251 246 237 240 239 263 245 232 217 251 258 226 213 203 200 215 234
215 210 203 200 205 200 203 204 205 202 203 206 202 205 207 206 207 204 198 203 200 196 197 198 207 201 195 196 188 190 194 199 193 187 198 205 210 211 205 185 177 182 183 179 197 191 195 190 189 195 195 185 190 194 199 195 186 179 191 205 205 210 228 227 221 229 237 244 242 238 237 232 233 238 261 245 215 219 264 255 237 211 195 202 224
217 213 209 210 203 203 205 207 206 201 202 202 200 200 200 204 205 206 209 211 209 203 197 204 202 200 200 199 196 194 193 192 190 191 196 201 202 204 194 181 183 208 203 198 208 206 205 207 208 198 220 277 304 253 229 190 207 207 211 210 197 212 216 216 224 232 236 235 240 247 250 245 235 231 243 252 259 236 234 262 250 236 205 192 201
214 209 212 208 210 207 206 209 209 204 197 195 193 197 197 201 202 203 213 214 210 209 203 203 198 202 195 187 194 200 197 199 200 202 215 219 220 213 208 181 176 180 188 203 202 189 199 204 222 199 178 210 231 227 167 158 108 296 288 288 270 287 268 245 234 240 246 237 233 232 233 227 229 228 230 234 239 249 248 247 269 258 204 201 202
215 208 207 213 211 208 197 213 204 197 195 194 193 192 200 203 208 209 215 209 211 204 208 212 208 206 208 206 199 199 196 196 196 194 195 202 212 208 202 189 184 182 190 202 205 213 204 204 215 219 203 203 213 141 112 126 138 274 228 261 267 233 253 245 240 242 240 235 230 229 230 238 234 227 225 223 228 227 236 243 249 268 269 200 197
223 208 214 216 214 210 210 216 182 201 204 202 199 199 201 205 203 213 212 208 203 207 216 207 210 204 196 203 219 214 208 203 199 198 201 192 199 207 205 205 194 198 198 208 194 194 195 195 194 203 206 203 205 145 151 128 217 229 244 274 265 240 239 231 232 241 237 233 229 230 226 228 231 228 225 226 230 221 220 217 222 245 265 266 208
240 209 223 216 211 209 216 208 197 198 207 206 201 210 205 208 206 209 196 215 228 212 213 205 200 215 220 208 195 194 198 208 208 220 213 209 208 207 210 200 189 188 200 210 202 197 189 188 187 195 182 205 203 165 174 189 221 188 102 9 268 289 208 231 228 238 225 218 225 231 228 231 232 224 227 231 226 214 217 220 222 211 231 248 259
247 238 214 216 216 216 214 206 201 200 202 205 211 211 199 198 207 205 193 198 200 208 224 228 214 212 220 212 229 220 211 212 202 199 206 211 213 212 214 208 205 203 205 200 198 207 198 197 192 201 186 189 205 213 197 198 203 137 231 211 229 129 289 231 233 233 230 225 216 230 218 229 230 220 228 238 231 215 220 211 209 226 233 232 237
232 225 213 211 204 210 204 197 196 197 194 190 197 189 167 179 154 81 82 86 30 178 197 228 219 219 228 217 221 202 211 222 227 218 214 216 210 208 206 211 216 213 212 207 190 200 203 204 203 199 197 208 206 216 200 197 210 210 206 102 166 240 229 272 61 254 139 202 218 223 225 230 232 217 219 236 234 227 217 213 217 218 225 228 223
264 243 223 216 201 199 191 193 192 192 193 189 183 179 192 186 171 182 192 201 218 194 212 217 210 210 219 221 219 212 218 221 216 214 209 217 222 216 208 199 196 193 196 208 218 216 208 205 201 198 207 216 229 216 193 186 217 222 238 244 252 265 240 202 116 270 73 230 233 228 229 227 225 225 222 233 228 224 207 223 214 222 211 201 197
305 289 262 225 208 197 190 189 190 189 186 182 177 180 192 198 200 206 211 214 222 232 228 229 225 223 218 224 228 220 221 224 228 225 222 214 219 224 228 225 216 209 202 202 204 204 205 206 199 203 213 212 214 226 211 180 199 243 234 242 256 248 224 144 230 340 285 180 229 225 226 232 216 225 234 231 228 223 215 216 220 222 217 208 212
301 310 316 311 217 204 184 188 188 185 186 178 181 183 193 198 205 213 216 222 224 240 230 235 234 225 211 223 223 224 220 225 231 231 232 231 227 229 219 213 213 214 204 208 212 211 209 207 202 205 208 203 199 211 216 195 189 218 213 231 236 238 218 259 235 237 264 283 257 226 237 238 204 224 229 237 238 224 226 209 221 228 225 221 215
359 1 344 330 314 201 180 166 176 175 186 181 182 197 202 200 209 218 231 237 248 256 255 239 227 222 234 236 231 232 230 229 229 233 235 238 232 229 226 224 218 220 213 223 220 207 204 205 205 206 209 213 211 215 218 211 200 221 180 223 231 237 236 234 245 210 247 254 267 249 248 178 247 226 224 231 238 236 224 223 224 229 226 222 209
349 352 16 26 41 78 101 124 134 123 120 162 169 186 201 182 206 216 227 237 227 250 240 248 233 211 234 239 233 235 233 233 234 237 239 236 241 242 242 240 240 230 215 218 220 222 217 212 204 201 205 211 211 213 218 227 222 229 223 229 221 233 243 248 236 238 246 239 255 263 246 252 252 230 222 234 232 232 224 225 224 222 220 221 213
12 27 28 28 26 46 85 88 53 48 61 116 160 181 187 195 210 212 222 231 228 226 232 241 229 229 231 236 226 232 231 234 236 238 238 240 240 240 243 246 246 247 248 244 235 231 230 227 224 216 214 214 216 214 219 222 220 223 223 220 217 210 211 222 232 229 232 238 248 262 260 255 258 269 221 211 214 220 223 214 223 220 214 217 218